Regional Weather Roundup
Issued by NWS

Home | Current Version | Previous Version | Text Only | Print | Product List | Glossary Off
Versions: 1 2 3 4 5 6 7 8 9 10 11 12 13 14 15 16 17 18 19 20 21 22 23 24 25 26 27 28 29 30 31 32 33 34 35 36 37 38 39 40 41 42 43 44 45 46 47 48 49 50

917
ASUS44 KJAN 210910
RWRMS

MISSISSIPPI HOURLY WEATHER ROUNDUP
NATIONAL WEATHER SERVICE JACKSON MS
400 AM CDT MON APR 21 2014

NOTE: "FAIR: INDICATES FEW OR NO CLOUDS BELOW 12,000 FEET WITH NO
SIGNIFICANT WEATHER AND/OR OBSTRUCTIONS TO VISIBILITY.

MSZ001>002-007>008-010>013-018>021-025>028-034>036-211000-
NORTHWEST MISSISSIPPI

CITY           SKY/WX    TMP DP  RH WIND       PRES   REMARKS
CLARKSDALE       N/A     63  54  72 S7        30.08S
CLEVELAND      FAIR      64  54  68 SE9       30.07R
GREENWOOD      PTCLDY    62  51  67 S5        30.09S
GREENVILLE     MOCLDY    64  52  64 SE9       30.06S
GRENADA        FAIR      52  50  93 CALM      30.10S
OLIVE BRANCH   CLEAR     59  54  82 S6        30.08S
OXFORD         FAIR      54  48  82 CALM      30.11S
TUNICA         CLOUDY    61  52  72 S8        30.08S
$$

MSZ003>006-009-014>017-022>024-029>033-037>039-211000-
NORTHEAST MISSISSIPPI

CITY           SKY/WX    TMP DP  RH WIND       PRES   REMARKS
BELMONT        FAIR      51  48  91 CALM      30.10S
COLUMBUS AFB   CLEAR     52  52 100 SE5       30.10S
CORINTH        FAIR      50  48  93 SE3       30.09S
GOLDN TRIANGLE CLEAR     55  48  76 SE3       30.12F
STARKVILLE     FAIR      50  48  93 CALM      30.10S
TUPELO         PTCLDY    54  50  86 CALM      30.10R
$$

MSZ040-058-211000-
CENTRAL MISSISSIPPI

CITY           SKY/WX    TMP DP  RH WIND       PRES   REMARKS
JACKSON INTL   CLEAR     57  53  86 S7        30.12S
JACKSON HAWKNS CLEAR     60  54  80 S9        30.12R
MERIDIAN KEY   CLEAR     50  49  96 CALM      30.13S
MERIDIAN NAS   CLEAR     53  49  86 CALM      30.12F
RAYMOND        FAIR      57  52  82 SE6       30.11S
VICKSBURG      CLEAR     60  54  80 SE7       30.09R
$$

MSZ059>079-211000-
SOUTH MISSISSIPPI

CITY           SKY/WX    TMP DP  RH WIND       PRES   REMARKS
BROOKHAVEN     CLOUDY    61  59  94 S7        30.14S FOG
COLUMBIA       CLOUDY    57  57 100 MISG      30.13S FOG
HATTIESBURG    CLEAR     59  57  93 CALM      30.14S
MCCOMB         CLOUDY    62  60  93 S7        30.13S
NATCHEZ        CLEAR     57  52  82 S6        30.11R
PINE BELT      CLEAR     55  52  88 CALM      30.14S
$$

MSZ080>082-211000-
COASTAL MISSISSIPPI

CITY           SKY/WX    TMP DP  RH WIND       PRES   REMARKS
BILOXI         CLEAR     58  58  97 N2        30.13R
PASCAGOULA     CLEAR     53  53 100 CALM      30.12S
GULFPORT       CLEAR     59  55  87 CALM      30.13R
$$



USA.gov is the U.S. government's official web portal to all federal, state and local government web resources and services.